Regional Weather Roundup
Issued by NWS Kansas City/Pleasant Hill, MO

Home | Current Version | Previous Version | Graphics & Text | Print | Product List | Glossary Off
Versions: 1 2 3 4 5 6 7 8 9 10 11 12 13 14 15 16 17 18 19 20 21 22 23 24 25 26 27 28 29 30 31 32 33 34 35 36 37 38 39 40 41 42 43 44 45 46 47 48 49 50

000
ASUS43 KEAX 061411
RWREAX

WEATHER ROUNDUP FOR EASTERN KANSAS AND NORTHWEST MISSOURI
NATIONAL WEATHER SERVICE KANSAS CITY/PLEASANT HILL MO
900 AM CDT WED MAY 06 2015

KSZ040-057-103>105-MOZ028-029-037-043-061500-
...KANSAS CITY METROPOLITAN AREA...

CITY           SKY/WX    TMP DP  RH WIND       PRES   REMARKS
K.C. INTL      CLOUDY    67  59  75 S16G25    29.93R
K.C. DOWNTOWN  CLOUDY    69  59  70 S20G29    29.94R
LEES SUMMIT    CLOUDY    66  59  78 S16G24    29.95S
OLATHE - IXD   CLOUDY    65  59  81 S17G29    29.95R
OLATHE - OJC   CLOUDY    65  60  84 S15G24    29.94R
LAWRENCE       PTSUNNY   66  59  78 S16G24    29.92R

$$

MOZ001>008-011>017-020>025-030>033-038>040-044>046-053-054-061500-
...NORTHERN AND CENTRAL MISSOURI...

CITY           SKY/WX    TMP DP  RH WIND       PRES   REMARKS
ST. JOSEPH     PTSUNNY   69  59  70 S20G29    29.91R
MOSBY          CLOUDY    68  59  73 S10G20    29.94S
HARRISONVILLE  CLOUDY    66  61  82 S10G20    29.99R
WARRENSBURG    CLOUDY    68  57  68 SE14G23   29.97F
WHITEMAN AFB   PTSUNNY   69  58  68 S17G24    29.98F
CLINTON        CLOUDY    70  57  64 S18       30.01R
SEDALIA        CLOUDY    69  57  65 S17       30.02F
WARSAW         NOT AVBL
MARSHALL       PTSUNNY   72  61  68 S16       30.00F
CHILLICOTHE      N/A     71  57  61 S7G20     29.98F
MOBERLY        SUNNY     72  54  53 SE15G23   30.06F
KIRKSVILLE     SUNNY     73  58  59 S17G24    30.05F

$$

MOZ041-047>049-056>058-063>065-088>090-097-061500-
...EASTERN AND SOUTHERN MISSOURI...

CITY           SKY/WX    TMP DP  RH WIND       PRES   REMARKS
ST. LOUIS INTL PTSUNNY   75  55  49 S8        30.14F
SPIRIT OF STL  SUNNY     73  55  53 S7        30.12F
COLUMBIA       SUNNY     70  56  61 S17       30.07S
JEFFERSON CITY SUNNY     69  55  60 SE8       30.07S
MEXICO         SUNNY     72  59  64 S13       30.09S
HANNIBAL       SUNNY     75  52  43 S10G16    30.10F
ROLLA          SUNNY     71  56  58 S12       30.10R
LEBANON        PTSUNNY   72  55  56 S10G18    30.10R
OSAGE BEACH    MOSUNNY   72  55  56 S10       30.07S
SPRINGFIELD    LGT RAIN  61  57  87 SW12      30.10R
BRANSON        CLOUDY    64  57  77 CALM      30.12
NEVADA         DRIZZLE   63  59  88 S16       30.01R
JOPLIN         LGT RAIN  62  58  86 S18G28    30.03R
WEST PLAINS    SUNNY     68  55  63 S8        30.14R

$$

IAZ060-094-KSZ022-034>040-054-083-096-NEZ052-066-093-061500-
...KANSAS...SOUTHEAST NEBRASKA AND IOWA...

CITY           SKY/WX    TMP DP  RH WIND       PRES   REMARKS
TOPEKA         PTSUNNY   66  60  81 S14       29.90R
MANHATTAN      CLOUDY    64  59  83 S16G29    29.85R
EMPORIA        LGT RAIN  60  57  89 S23G29    29.90R
CHANUTE        LGT RAIN  61  59  93 S15       29.95R
WICHITA        LGT RAIN  61  58  90 SE24G32   29.86S
OMAHA          CLOUDY    67  61  81 SE22G28   29.84F
LINCOLN        CLOUDY    64  61  90 S16G28    29.82R
FALLS CITY     PTSUNNY   66  59  78 S23G30    29.87R
LAMONI         PTSUNNY   69  57  65 SE16G23   29.96F
DES MOINES     CLOUDY    71  57  61 SE17      29.98F

$$



USA.gov is the U.S. government's official web portal to all federal, state and local government web resources and services.